Regional Weather Roundup
Issued by NWS Charleston, SC

Current Version | Previous Version | Text Only | Print | Product List | Glossary Off
Versions: 1 2 3 4 5 6 7 8 9 10 11 12 13 14 15 16 17 18 19 20 21 22 23 24 25 26 27 28 29 30 31 32 33 34 35 36 37 38 39 40 41 42 43 44 45 46 47 48 49 50

000
ASUS42 KCHS 091412
RWRCHS

REGIONAL WEATHER ROUNDUP
NATIONAL WEATHER SERVICE CHARLESTON SC
900 AM EST TUE FEB 09 2016

NOTE: "FAIR" INDICATES FEW OR NO CLOUDS BELOW 12,000 FEET WITH NO
SIGNIFICANT WEATHER AND/OR OBSTRUCTIONS TO VISIBILITY.

NOT ALL STATIONS ARE QUALITY CONTROLLED BY THE NATIONAL
WEATHER SERVICE. USE DATA WITH CAUTION...ESPECIALLY
DEWPOINT OBSERVATIONS.

NOTICE: OBSERVATIONS FOR THE SAVANNAH-HILTON HEAD INTERNATIONAL AIRPORT
/KSAV/ HAVE BEEN TEMPORARILY REMOVED DUE TO AN ERRONEOUS TEMPERATURE
SENSOR. THE OBSERVATION WILL BE REINTRODUCED ONCE REPAIRS ARE COMPLETE.

SCZ027-030-031-034>040-042>050-091500-
...SOUTHEAST SOUTH CAROLINA...

CITY           SKY/WX    TMP DP  RH WIND       PRES   REMARKS
N CHARLESTON   MOSUNNY   41  27  57 W16G22    29.86R
WATERFRONT PRK   N/A     41  30  65 W7        29.70R
MOUNT PLEASANT FAIR      41  30  65 W12G23    29.86R
JOHNS ISLAND   FAIR      43  28  56 SW15G24   29.87R
PINOPOLIS        N/A     39  28  65 W14       29.77R WCI  31
MONCKS CORNER  CLOUDY    37  25  60 W5        29.84R WCI  34
SUMMERVILLE    NOT AVBL
BEAUFORT MCAS  SUNNY     42  27  55 W15       29.89R
BEAUFORT ARPT  FAIR      43  28  56 W21G28    29.88S HAZE
HILTON HEAD IS SUNNY     43  28  56 W12G24    29.92R
WALTERBORO     CLOUDY    41  30  65 W12       29.87R
ALLENDALE      CLOUDY    39  27  60 VRB7G15   29.86R WCI  34

...SOUTHERN MIDLANDS AND PEE DEE...

CITY           SKY/WX    TMP DP  RH WIND       PRES   REMARKS
GEORGETOWN     NOT AVBL
KINGSTREE      NOT AVBL
ORANGEBURG     CLOUDY    38  25  59 W10       29.83R WCI  31
BARNWELL       CLOUDY    41  30  65 W13       29.84S
AIKEN          FAIR      37  23  56 W16G24    29.84R WCI  28
MANNING        PTSUNNY   37  23  56 W8G23     29.82R WCI  31
COLUMBIA       PTSUNNY   40  23  50 W15G29    29.80R WCI  32
SUMTER         MOSUNNY   37  24  57 SW15      29.77R WCI  28
FLORENCE       SUNNY     38  24  57 W16G25    29.77R WCI  29
MYRTLE BEACH   SUNNY     41  21  45 W16       29.80R
N MYRTLE BEACH SUNNY     40  25  55 W14G28    29.76R WCI  32

$$

GAZ063-065-086>088-099>101-113>116-118-119-134>141-150-091500-
...SOUTHEAST GEORGIA...

CITY           SKY/WX    TMP DP  RH WIND       PRES   REMARKS
SAVANNAH ARPT  MOSUNNY   41  28  60 W14       29.91R
HUNTER AAF     SUNNY     41  30  64 W13G23    29.89R
FORT STEWART   SUNNY     41  28  60 W18G24    29.90S
STATESBORO     CLOUDY    43  24  47 W9        29.90R
SYLVANIA       PTSUNNY   40  31  68 W8        29.88S WCI  35
CLAXTON        FAIR      42  31  67 SW8G23    29.91S

...CSRA...CENTRAL AND FAR SOUTHEAST GEORGIA...

CITY           SKY/WX    TMP DP  RH WIND       PRES   REMARKS
THOMSON        CLOUDY    39  27  61 W7G18     29.88S WCI  34
AUGUSTA-BUSH   PTSUNNY   40  22  48 W9        29.85R WCI  34
AUGUSTA-DANIEL CLOUDY    39  21  48 W9G22     29.84R WCI  33
SWAINSBORO     CLOUDY    37  28  70 W9G17     29.89S WCI  31
VIDALIA        CLOUDY    37  28  70 W8        29.91S WCI  31
EASTMAN        CLOUDY    40  25  55 W12G20    29.94F WCI  33
HAZLEHURST     FAIR      42  28  58 W8        29.92S
ALMA           SUNNY     40  26  57 W16G23    29.94S WCI  31
WAYCROSS       SUNNY     44  30  57 W12G20    29.96S
JESUP          FAIR      45  32  61 W13       29.94S
BAXLEY         FAIR      41  28  60 W10G16    29.93S
BRUNSWICK      SUNNY     43  30  61 W12G20    29.95F
SAINT SIMONS   SUNNY     43  27  53 W15G23    29.94F

$$

SCZ027-028-034-036>038-045-046-048>050-GAZ119-141-091500-
...LAKE AND SUPPLEMENTAL COASTAL OBSERVATIONS...

STATION/POSITION TIME  TEMP    WIND        PRES    WAVE   SWELL
                       AIR SEA DIR/SP/G            HT/PER HT/PER/DIR
                 (UTC) (F)     (DEG/KT/KT) (MB)    (FT/S) (FT/S/D)
WINYAH BAY       NOT AVBL
LAKE MURRAY      1300   38     270/ 14/ 21 1007.8R
ACE BASIN NERRS  1245   38     250/  5     1011.0
FORT PULASKI     1300   40 52  240/ 12/ 18 1012.8R
SAPELO ISLAND    1300   41     240/ 15     1014.0R

$$

ANZ835-935-AMZ111-154-330-350-352-354-370-450-454-472-091500-
...C-MAN AND BUOY OBSERVATIONS...

STATION/POSITION TIME  TEMP    WIND        PRES    WAVE   SWELL
                       AIR SEA DIR/SP/G            HT/PER HT/PER/DIR
                 (UTC) (F)     (DEG/KT/KT) (MB)    (FT/S) (FT/S/D)
BUOY 41004       1350   46 65  270/ 25/ 31 1010.0R   8/ 7   2/14
BUOY 41008       1350   44 55  270/ 25/ 31 1013.2R   5/ 5
FOLLY BEACH CMAN 1400   42     250/ 10/ 18 1011.6R
CAPERS NEARSHORE 1308   42     280/ 19/ 27 1009.6R
FRIPP NEARSHORE  1300   44     270/ 23/ 27 1011.2R


STATION/POSITION TIME  TEMP    WIND        PRES    WAVE   SWELL
                       AIR SEA DIR/SP/G            HT/PER HT/PER/DIR
                 (UTC) (F)     (DEG/KT/KT) (MB)    (FT/S) (FT/S/D)
5E ST. MARYS GA  1321      56                N/A     4/ 4   2/ 80/17
FRYING PAN BUOY  1300   48 63  270/ 25/ 31 1006.6R
BUOY 41025       1350   47 73  290/ 16/ 19 1002.8R  11/14  10/ 70/14
CAPE LOOKOUT NC  NOT AVBL
BUOY 41002       1350   59 69  280/ 31/ 39   N/A    17/10  11/260/10
BUOY 41010       1320   61 72              1013.0R
ST AUGUSTINE FL  1400   46 56  270/ 16/ 20 1016.7F


$$



USA.gov is the U.S. government's official web portal to all federal, state and local government web resources and services.